This is the latest recevied weather packets stored in our database for station/object W0DXV. If no packets are shown the sender has not sent any weather packets the latest 10 day(s).
| Time | Temp. | Humidity | Pressure | Rain* | Wind** | Luminosity | Snow |
|---|---|---|---|---|---|---|---|
| 1777647244 | 15° C | 54% | 1012.1 hPa | 0 mm | - | 551 W/m² | - |
| 1777646942 | 14.44° C | 56% | 1012.3 hPa | 0 mm | - | 431 W/m² | - |
| 1777646637 | 13.89° C | 57% | 1012.3 hPa | 0 mm | - | 503 W/m² | - |
| 1777646334 | 13.89° C | 55% | 1012.3 hPa | 0 mm | - | 533 W/m² | - |
| 1777646030 | 13.89° C | 56% | 1012.5 hPa | 0 mm | - | 515 W/m² | - |
| 1777645727 | 13.89° C | 57% | 1012.5 hPa | 0 mm | - | 395 W/m² | - |
| 1777645424 | 14.44° C | 54% | 1012.3 hPa | 0 mm | - | 373 W/m² | - |
| 1777645120 | 13.89° C | 54% | 1012.4 hPa | 0 mm | - | 343 W/m² | - |
| 1777644816 | 13.89° C | 55% | 1012.4 hPa | 0 mm | - | 466 W/m² | - |
| 1777644514 | 13.89° C | 57% | 1012.4 hPa | 0 mm | - | 413 W/m² | - |
| 1777644210 | 13.89° C | 56% | 1012.3 hPa | 0 mm | - | 478 W/m² | - |
| 1777643906 | 13.33° C | 58% | 1012 hPa | 0 mm | - | 268 W/m² | - |
| 1777643605 | 13.33° C | 59% | 1012.2 hPa | 0 mm | - | 329 W/m² | - |
| 1777643301 | 12.78° C | 59% | 1012.3 hPa | 0 mm | - | 547 W/m² | - |
| 1777642998 | 12.22° C | 61% | 1012 hPa | 0 mm | - | 404 W/m² | - |
| 1777642694 | 12.78° C | 61% | 1012.1 hPa | 0 mm | - | 148 W/m² | - |
| 1777642392 | 12.78° C | 61% | 1012.4 hPa | 0 mm | - | 193 W/m² | - |
| 1777642088 | 12.22° C | 61% | 1012.1 hPa | 0 mm | - | 200 W/m² | - |
| 1777641784 | 12.22° C | 61% | 1012.5 hPa | 0 mm | - | 138 W/m² | - |
| 1777641478 | 12.22° C | 63% | 1012.4 hPa | 0 mm | - | 175 W/m² | - |
| 1777641174 | 12.22° C | 64% | 1012.3 hPa | 0 mm | - | 143 W/m² | - |
| 1777640870 | 12.22° C | 62% | 1012 hPa | 0 mm | - | 176 W/m² | - |
| 1777640568 | 12.22° C | 63% | 1012.3 hPa | 0 mm | - | 171 W/m² | - |
| 1777640264 | 12.22° C | 63% | 1012.1 hPa | 0 mm | - | 173 W/m² | - |
| 1777639960 | 12.22° C | 65% | 1012.1 hPa | 0 mm | - | 189 W/m² | - |
* Rain latest hour (hover to see other rain measurements)
** Current wind speed in m/s (hover to see current wind gust speed)